Chehalis, WA
on Friday, January 18, 2013

Friday
Previous Day Next Day
Daily Summary
 ActualAverage (KOLM)Record (KOLM)
Temperature
Mean Temperature °F 40°F  
Max Temperature 48°F 46°F 60°F (2005)
Min Temperature 28°F 34°F 13°F (1950)
Degree Days
Heating Degree Days 27 25  
Month to date heating degree days 460  
Since 1 July heating degree days 2730  
Cooling Degree Days 0 0  
Month to date cooling degree days 0  
Year to date cooling degree days 0  
Moisture
Dew Point 32°F   
Average Humidity 92    
Maximum Humidity 100    
Minimum Humidity 66    
Precipitation
Precipitation 0.01 in 0.27 in 3.23 in (1986)
Month to date precipitation 4.70  
Year to date precipitation 4.70  
Wind
Wind Speed 6 mph   
Max Wind Speed 10 mph   
Max Gust Speed mph   
Visibility 6 miles   
Events Fog   

Key: T is trace of precipitation, MM is missing value
Source: NWS Daily Summary
Time(PST)TemperatureDew PointHumidity Pressure Visibility Wind DirectionWind SpeedGust SpeedPrecipitationEvents Conditions
12:15 AM 32.0°F 30.2°F 93% 30.32 in 0.5 miles South 4.6 mph - N/A Fog Light Freezing Fog
12:35 AM 32.0°F 30.2°F 93% 30.32 in 0.5 miles South 5.8 mph - N/A Fog Light Freezing Fog
12:55 AM 30.2°F 30.2°F 100% 30.32 in 0.8 miles South 5.8 mph - N/A   Overcast
1:15 AM 30.2°F 30.2°F 100% 30.32 in 0.8 miles South 5.8 mph - N/A   Overcast
1:35 AM 30.2°F 30.2°F 100% 30.32 in 1.2 miles South 6.9 mph - N/A   Overcast
1:55 AM 30.2°F 30.2°F 100% 30.32 in 1.2 miles SSW 6.9 mph - N/A   Overcast
2:15 AM 30.2°F 28.4°F 93% 30.32 in 7.0 miles SSW 6.9 mph - N/A   Overcast
2:35 AM 30.2°F 28.4°F 93% 30.31 in 10.0 miles SSW 5.8 mph - N/A   Overcast
2:55 AM 28.4°F 28.4°F 100% 30.31 in 10.0 miles SSW 6.9 mph - N/A   Scattered Clouds
3:15 AM 28.4°F 28.4°F 100% 30.31 in 1.8 miles SW 5.8 mph - N/A   Mostly Cloudy
3:35 AM 28.4°F 28.4°F 100% 30.30 in 0.5 miles SW 5.8 mph - N/A Fog Light Freezing Fog
3:55 AM 28.4°F 28.4°F 100% 30.30 in 0.5 miles SW 6.9 mph - N/A Fog Light Freezing Fog
4:15 AM 28.4°F 28.4°F 100% 30.29 in 1.0 miles SW 6.9 mph - N/A   Overcast
4:35 AM 28.4°F 28.4°F 100% 30.29 in 0.8 miles SW 6.9 mph - N/A   Overcast
4:55 AM 28.4°F 28.4°F 100% 30.29 in 1.5 miles SW 6.9 mph - N/A   Overcast
5:15 AM 28.4°F 28.4°F 100% 30.28 in 2.0 miles SW 6.9 mph - N/A   Overcast
5:35 AM 28.4°F 28.4°F 100% 30.28 in 9.0 miles SW 5.8 mph - N/A   Mostly Cloudy
5:55 AM 28.4°F 28.4°F 100% 30.28 in 10.0 miles SW 5.8 mph - N/A   Partly Cloudy
6:15 AM 28.4°F 26.6°F 93% 30.28 in 9.0 miles SW 5.8 mph - N/A   Partly Cloudy
6:35 AM 28.4°F 26.6°F 93% 30.28 in 9.0 miles SW 6.9 mph - N/A   Clear
6:55 AM 28.4°F 26.6°F 93% 30.28 in 10.0 miles SW 8.1 mph - N/A   Clear
7:15 AM 28.4°F 28.4°F 100% 30.28 in 10.0 miles SW 8.1 mph - N/A   Clear
7:35 AM 28.4°F 26.6°F 93% 30.29 in 10.0 miles SW 5.8 mph - N/A   Clear
7:55 AM 28.4°F 26.6°F 93% 30.29 in 10.0 miles SW 6.9 mph - N/A   Clear
8:15 AM 28.4°F 26.6°F 93% 30.30 in 10.0 miles SW 5.8 mph - N/A   Clear
8:35 AM 28.4°F 26.6°F 93% 30.30 in 10.0 miles SW 5.8 mph - N/A   Clear
8:55 AM 28.4°F 28.4°F 100% 30.30 in 10.0 miles SW 5.8 mph - N/A   Clear
9:15 AM 30.2°F 28.4°F 93% 30.31 in 10.0 miles SSW 4.6 mph - N/A   Clear
9:35 AM 32.0°F 28.4°F 87% 30.31 in 10.0 miles SW 4.6 mph - N/A   Clear
9:55 AM 32.0°F 30.2°F 93% 30.31 in 10.0 miles SW 6.9 mph - N/A   Clear
10:15 AM 32.0°F 30.2°F 93% 30.31 in 10.0 miles SW 5.8 mph - N/A   Clear
10:35 AM 32.0°F 32.0°F 100% 30.31 in 10.0 miles SW 4.6 mph - N/A   Clear
10:55 AM 35.6°F 32.0°F 87% 30.31 in 10.0 miles WSW 4.6 mph - 0.01 in   Clear
11:15 AM 35.6°F 32.0°F 87% 30.31 in 10.0 miles WSW 3.5 mph - N/A   Clear
11:35 AM 37.4°F 33.8°F 87% 30.31 in 10.0 miles SW 3.5 mph - N/A   Clear
11:55 AM 39.2°F 35.6°F 87% 30.30 in 10.0 miles WSW 3.5 mph - N/A   Clear
12:15 PM 41.0°F 35.6°F 81% 30.30 in 10.0 miles West 3.5 mph - N/A   Clear
12:35 PM 41.0°F 35.6°F 81% 30.29 in 10.0 miles WSW 3.5 mph - N/A   Clear
12:55 PM 42.8°F 37.4°F 81% 30.29 in 10.0 miles WSW 4.6 mph - N/A   Clear
1:15 PM 44.6°F 37.4°F 76% 30.28 in 10.0 miles WSW 3.5 mph - N/A   Clear
1:35 PM 46.4°F 37.4°F 71% 30.28 in 10.0 miles SW 3.5 mph - N/A   Clear
1:55 PM 46.4°F 37.4°F 71% 30.27 in 10.0 miles WSW 3.5 mph - N/A   Clear
2:15 PM 48.2°F 39.2°F 71% 30.27 in 10.0 miles West 3.5 mph - N/A   Clear
2:35 PM 48.2°F 39.2°F 71% 30.28 in 10.0 miles North 3.5 mph - N/A   Clear
2:55 PM 48.2°F 37.4°F 66% 30.28 in 10.0 miles Calm Calm - N/A   Clear
3:15 PM 46.4°F 39.2°F 76% 30.28 in 10.0 miles North 5.8 mph - N/A   Clear
3:35 PM 44.6°F 39.2°F 81% 30.28 in 10.0 miles North 5.8 mph - N/A   Clear
3:55 PM 41.0°F 37.4°F 87% 30.28 in 10.0 miles North 4.6 mph - N/A   Clear
4:15 PM 41.0°F 37.4°F 87% 30.29 in 10.0 miles North 3.5 mph - N/A   Clear
4:35 PM 39.2°F 37.4°F 93% 30.29 in 10.0 miles North 5.8 mph - N/A   Clear
4:55 PM 37.4°F 35.6°F 93% 30.29 in 10.0 miles North 5.8 mph - N/A   Clear
5:15 PM 35.6°F 33.8°F 93% 30.29 in 10.0 miles North 6.9 mph - N/A   Clear
5:35 PM 35.6°F 33.8°F 93% 30.30 in 9.0 miles North 8.1 mph - N/A   Clear
5:55 PM 35.6°F 32.0°F 87% 30.30 in 9.0 miles North 5.8 mph - N/A   Clear
6:15 PM 33.8°F 32.0°F 93% 30.31 in 5.0 miles North 5.8 mph - N/A   Scattered Clouds
6:35 PM 35.6°F 33.8°F 93% 30.31 in 7.0 miles North 6.9 mph - N/A   Overcast
6:55 PM 35.6°F 33.8°F 93% 30.31 in 6.0 miles North 5.8 mph - N/A   Overcast
7:15 PM 35.6°F 33.8°F 93% 30.32 in 4.0 miles North 4.6 mph - N/A   Overcast
7:35 PM 35.6°F 33.8°F 93% 30.32 in 2.5 miles North 4.6 mph - N/A   Overcast
7:55 PM 35.6°F 33.8°F 93% 30.32 in 1.0 miles North 5.8 mph - N/A   Overcast
8:15 PM 35.6°F 33.8°F 93% 30.32 in 0.5 miles North 4.6 mph - N/A Fog Fog
8:35 PM 35.6°F 33.8°F 93% 30.32 in 0.5 miles North 4.6 mph - N/A Fog Fog
8:55 PM 33.8°F 33.8°F 100% 30.33 in 0.2 miles NE 8.1 mph - N/A Fog Fog
9:15 PM 33.8°F 33.8°F 100% 30.33 in 0.2 miles North 4.6 mph - N/A Fog Fog
9:35 PM 33.8°F 33.8°F 100% 30.34 in 0.2 miles NNE 4.6 mph - N/A Fog Fog
9:55 PM 33.8°F 33.8°F 100% 30.34 in 0.2 miles NNE 4.6 mph - N/A Fog Fog
10:15 PM 33.8°F 32.0°F 93% 30.34 in 0.2 miles North 4.6 mph - N/A Fog Fog
10:35 PM 33.8°F 32.0°F 93% 30.34 in 0.2 miles North 6.9 mph - N/A Fog Fog
10:55 PM 32.0°F 32.0°F 100% 30.34 in 0.5 miles North 6.9 mph - N/A Fog Fog
11:15 PM 32.0°F 32.0°F 100% 30.34 in 1.0 miles NE 10.4 mph - N/A   Overcast
11:35 PM 32.0°F 32.0°F 100% 30.34 in 0.5 miles NNE 9.2 mph - N/A Fog Fog
11:55 PM 32.0°F 32.0°F 100% 30.34 in 0.8 miles NE 6.9 mph - N/A   Overcast
Moon Phase
Jan. 18 Jan. 18 Jan. 26 Feb. 03 Feb. 10
Sunrise:07:49 AM (PST) Moon Rise:11:00 AM (PST)
Sunset:04:55 PM (PST) Moon Set:12:20 AM (PST)

Copyright © 2014 The Weather Underground, Inc.